Weather History for North Wilkesboro, NC

Change the Weather History Date:

Wednesday, May 15, 2013

  Actual Average Record
Temperature  
Mean Temperature 66 °F -  
Max Temperature 86 °F 78 °F 90 °F (1970)
Min Temperature 46 °F 50 °F 35 °F (1959)
Cooling Degree Days 1    
Growing Degree Days 16 (Base 50)    
Moisture  
Dew Point 50 °F    
Average Humidity 58    
Maximum Humidity 100    
Minimum Humidity 27    
Precipitation  
Precipitation 0.00 in - - ()
Sea Level Pressure  
Sea Level Pressure 30.06 in    
Wind  
Wind Speed 3 mph (WSW)    
Max Wind Speed 13 mph    
Max Gust Speed 22 mph    
Visibility 10 miles    
Events      
Averages and records for this station are not official NWS values.
T = Trace of Precipitation, MM = Missing Value Source: NWS Daily Summary

Daily Weather History Graph

Daily Weather History Graph

Search for Another Location

Airport:

Trip Planner

Search our weather history database for the weather conditions in past years. The results will help you decide how hot, cold, wet, or windy it might be!

Date:

Astronomy

May. 15, 2013 Rise Set
Actual Time 6:17 AM EDT 8:24 PM EDT
Civil Twilight 5:49 AM EDT 8:52 PM EDT
Nautical Twilight 5:14 AM EDT 9:27 PM EDT
Astronomical Twilight 4:36 AM EDT 10:05 PM EDT
Moon 10:50 AM EDT (5/15) 12:10 AM EDT (5/15)
Length of Visible Light 15h 03m
Length of Day
14h 06m
Waxing Crescent, 26% of the Moon is Illuminated
May 15
Waxing Crescent
May 18
First Quarter
May 25
Full
May 31
Last Quarter
Jun 8
New

Hourly Weather History & Observations

Time (EDT) Temp. Windchill Dew Point Humidity Pressure Visibility Wind Dir Wind Speed Gust Speed Precip Events Conditions
12:15 AM 53.6 °F - 44.6 °F 72% 30.11 in 10.0 mi Calm Calm - N/A   Clear
12:35 AM 51.8 °F - 44.6 °F 76% 30.11 in 10.0 mi Calm Calm - N/A   Clear
12:55 AM 51.8 °F - 44.6 °F 76% 30.10 in 10.0 mi West 3.5 mph - N/A   Clear
1:15 AM 53.6 °F - 44.6 °F 72% 30.10 in 10.0 mi West 4.6 mph - N/A   Clear
1:35 AM 53.6 °F - 44.6 °F 72% 30.09 in 10.0 mi Calm Calm - N/A   Clear
1:55 AM 53.6 °F - 46.4 °F 77% 30.09 in 10.0 mi Calm Calm - N/A   Clear
2:15 AM 53.6 °F - 46.4 °F 77% 30.08 in 10.0 mi West 4.6 mph - N/A   Clear
2:35 AM 53.6 °F - 46.4 °F 77% 30.09 in 10.0 mi Calm Calm - N/A   Clear
2:55 AM 51.8 °F - 46.4 °F 82% 30.09 in 10.0 mi Calm Calm - N/A   Clear
3:15 AM 50.0 °F - 46.4 °F 87% 30.08 in 10.0 mi Calm Calm - N/A   Clear
3:35 AM 50.0 °F - 46.4 °F 87% 30.08 in 10.0 mi Calm Calm - N/A   Clear
3:55 AM 50.0 °F - 46.4 °F 87% 30.07 in 10.0 mi Calm Calm - N/A   Clear
4:15 AM 48.2 °F - 44.6 °F 87% 30.07 in 10.0 mi North 3.5 mph - N/A   Clear
4:35 AM 48.2 °F - 44.6 °F 87% 30.07 in 10.0 mi Calm Calm - N/A   Clear
4:55 AM 48.2 °F - 44.6 °F 87% 30.08 in 10.0 mi North 3.5 mph - N/A   Clear
5:15 AM 48.2 °F - 44.6 °F 87% 30.09 in 10.0 mi Calm Calm - N/A   Clear
5:35 AM 46.4 °F - 44.6 °F 93% 30.09 in 10.0 mi Calm Calm - N/A   Clear
5:55 AM 46.4 °F - 44.6 °F 93% 30.09 in 10.0 mi Calm Calm - N/A   Clear
6:15 AM 46.4 °F 44.3 °F 44.6 °F 93% 30.09 in 10.0 mi North 4.6 mph - N/A   Clear
6:35 AM 46.4 °F - 46.4 °F 100% 30.10 in 10.0 mi Calm Calm - N/A   Clear
6:55 AM 50.0 °F - 46.4 °F 87% 30.10 in 10.0 mi Calm Calm - N/A   Clear
7:15 AM 50.0 °F - 46.4 °F 87% 30.10 in 10.0 mi Calm Calm - N/A   Clear
7:35 AM 50.0 °F - 46.4 °F 87% 30.11 in 10.0 mi Calm Calm - N/A   Clear
7:55 AM 51.8 °F - 50.0 °F 94% 30.10 in 10.0 mi Calm Calm - N/A   Clear
8:15 AM 53.6 °F - 50.0 °F 88% 30.10 in 10.0 mi Calm Calm - N/A   Clear
8:35 AM 55.4 °F - 51.8 °F 88% 30.11 in 10.0 mi Calm Calm - N/A   Clear
8:55 AM 59.0 °F - 51.8 °F 77% 30.11 in 10.0 mi Calm Calm - N/A   Clear
9:15 AM 60.8 °F - 53.6 °F 77% 30.11 in 10.0 mi Calm Calm - N/A   Clear
9:35 AM 60.8 °F - 53.6 °F 77% 30.11 in 10.0 mi Calm Calm - N/A   Clear
9:55 AM 64.4 °F - 55.4 °F 73% 30.11 in 10.0 mi SSW 3.5 mph - N/A   Clear
10:15 AM 69.8 °F - 55.4 °F 60% 30.11 in 10.0 mi SSW 3.5 mph - N/A   Clear
10:35 AM 73.4 °F - 59.0 °F 61% 30.11 in 10.0 mi SW 4.6 mph - N/A   Clear
10:55 AM 73.4 °F - 55.4 °F 53% 30.11 in 10.0 mi Calm Calm - N/A   Clear
11:15 AM 77.0 °F - 59.0 °F 54% 30.11 in 10.0 mi Calm Calm - N/A   Clear
11:35 AM 78.8 °F - 60.8 °F 54% 30.11 in 10.0 mi SSW 5.8 mph - N/A   Clear
11:55 AM 80.6 °F - 60.8 °F 51% 30.10 in 10.0 mi WSW 4.6 mph - N/A   Clear
12:15 PM 80.6 °F - 55.4 °F 42% 30.10 in 10.0 mi Calm Calm - N/A   Clear
12:35 PM 80.6 °F - 55.4 °F 42% 30.09 in 10.0 mi Calm Calm - N/A   Clear
12:55 PM 82.4 °F - 59.0 °F 45% 30.07 in 10.0 mi West 5.8 mph - N/A   Clear
1:15 PM 84.2 °F - 55.4 °F 37% 30.07 in 10.0 mi WNW 9.2 mph 17.3 mph N/A   Clear
1:35 PM 86.0 °F - 57.2 °F 37% 30.06 in 10.0 mi NW 8.1 mph - N/A   Clear
1:55 PM 86.0 °F - 57.2 °F 37% 30.05 in 10.0 mi Calm Calm - N/A   Clear
2:15 PM 86.0 °F - 59.0 °F 40% 30.04 in 10.0 mi SW 10.4 mph 17.3 mph N/A   Clear
2:35 PM 84.2 °F - 59.0 °F 42% 30.04 in 10.0 mi SW 12.7 mph 19.6 mph N/A   Clear
2:55 PM 86.0 °F - 57.2 °F 37% 30.03 in 10.0 mi SW 11.5 mph 19.6 mph N/A   Clear
3:15 PM 86.0 °F - 55.4 °F 35% 30.03 in 10.0 mi SW 10.4 mph 20.7 mph N/A   Clear
3:35 PM 86.0 °F - 53.6 °F 33% 30.03 in 10.0 mi WSW 11.5 mph 19.6 mph N/A   Clear
3:55 PM 86.0 °F - 51.8 °F 31% 30.02 in 10.0 mi West 11.5 mph 21.9 mph N/A   Clear
4:15 PM 86.0 °F - 51.8 °F 31% 30.01 in 10.0 mi West 8.1 mph 20.7 mph N/A   Clear
4:35 PM 86.0 °F - 50.0 °F 29% 30.01 in 10.0 mi West 10.4 mph 18.4 mph N/A   Clear
4:55 PM 86.0 °F - 50.0 °F 29% 30.00 in 10.0 mi West 11.5 mph 17.3 mph N/A   Clear
5:15 PM 86.0 °F - 50.0 °F 29% 30.00 in 10.0 mi West 6.9 mph 16.1 mph N/A   Clear
5:35 PM 86.0 °F - 48.2 °F 27% 30.00 in 10.0 mi WNW 8.1 mph 16.1 mph N/A   Clear
5:55 PM 86.0 °F - 50.0 °F 29% 30.00 in 10.0 mi WNW 12.7 mph 19.6 mph N/A   Clear
6:15 PM 84.2 °F - 48.2 °F 29% 30.00 in 10.0 mi West 8.1 mph 16.1 mph N/A   Clear
6:35 PM 84.2 °F - 48.2 °F 29% 30.00 in 10.0 mi West 10.4 mph - N/A   Clear
6:55 PM 82.4 °F - 48.2 °F 30% 30.00 in 10.0 mi West 8.1 mph - N/A   Clear
7:15 PM 82.4 °F - 50.0 °F 32% 30.00 in 10.0 mi West 3.5 mph - N/A   Clear
7:35 PM 80.6 °F - 50.0 °F 34% 30.00 in 10.0 mi WSW 4.6 mph - N/A   Clear
7:55 PM 78.8 °F - 46.4 °F 32% 30.00 in 10.0 mi SW 4.6 mph - N/A   Clear
8:15 PM 77.0 °F - 48.2 °F 36% 30.01 in 10.0 mi Calm Calm - N/A   Clear
8:35 PM 73.4 °F - 48.2 °F 41% 30.01 in 10.0 mi Calm Calm - N/A   Clear
8:55 PM 73.4 °F - 48.2 °F 41% 30.02 in 10.0 mi SW 4.6 mph - N/A   Clear
9:15 PM 73.4 °F - 46.4 °F 38% 30.02 in 10.0 mi WSW 3.5 mph - N/A   Clear
9:35 PM 71.6 °F - 48.2 °F 43% 30.02 in 10.0 mi SW 4.6 mph - N/A   Clear
9:55 PM 71.6 °F - 50.0 °F 46% 30.02 in 10.0 mi SW 5.8 mph - N/A   Clear
10:15 PM 71.6 °F - 50.0 °F 46% 30.03 in 10.0 mi SW 3.5 mph - N/A   Clear
10:35 PM 71.6 °F - 50.0 °F 46% 30.03 in 10.0 mi Calm Calm - N/A   Clear
10:55 PM 71.6 °F - 50.0 °F 46% 30.03 in 10.0 mi West 3.5 mph - N/A   Clear
11:15 PM 69.8 °F - 50.0 °F 49% 30.03 in 10.0 mi Calm Calm - N/A   Clear
11:35 PM 68.0 °F - 50.0 °F 52% 30.02 in 10.0 mi Calm Calm - N/A   Clear
11:55 PM 66.2 °F - 50.0 °F 56% 30.02 in 10.0 mi Calm Calm - N/A   Clear